{"data":{"norad_id":66236,"intl_designator":"2025-245C","name":"STARLINK-35454","alt_names":[],"object_type":"PAYLOAD","status":"ACTIVE","operator":null,"country":"US","launch_date":"2025-10-29","launch_site_code":"AFETR","launch_vehicle":null,"mission":null,"orbit_class":"UNKNOWN","rcs_meters":null,"size_class":null,"mass_kg":null,"dimensions":null,"purposes":["comms"],"wikipedia_slug":null,"has_3d_model":false,"image_url":null,"decayed_at":null,"tle_current":{"epoch":"2026-05-24T18:42:24.037632Z","epoch_age_seconds":84376,"freshness":"FRESH","line1":"1 66236U 25245C   26144.77944488 -.00005621  00000+0 -17793-3 0  9994","line2":"2 66236  53.1574 290.6515 0000747  53.1072 306.9997 15.30176428 32740","mean_motion":15.30176428,"eccentricity":7.47e-5,"inclination_deg":53.1574,"raan_deg":290.6515,"arg_perigee_deg":53.1072,"mean_anomaly_deg":306.9997,"bstar":-0.00017793,"rev_number":3274,"period_min":94.10679537667,"perigee_km":474.77350140878,"apogee_km":475.79740272312,"semimajor_km":6853.422452066,"source":"CELESTRAK","updated_at":"2026-05-25T13:38:21.133532Z"}}}